Tracking 18624 objects as of 28-April-2017
HD Live streaming from Space Station
objects crossing your sky now

INSAT 1C

Track INSAT 1C now!
INSAT 1C is classified as:


NORAD ID: 19330
Int'l Code: 1988-063A
Perigee: 35,765.5 km
Apogee: 35,815.6 km
Inclination: 14.9 °
Period: 1,435.9 minutes
Semi major axis: 42161 km
RCS: 1.9952 m2 (large)
Launch date: July 21, 1988
Source: India (IND)
Launch site: FRENCH GUIANA (FRGUI)
Your satellite tracking list
Your tracking list is empty





NASA's NSSDC Master Catalog

Two Line Element Set (TLE):
1 19330U 88063A   17117.62618797 -.00000288 +00000-0 +00000-0 0  9993
2 19330 014.9226 356.7053 0005938 059.1500 119.0103 01.00283152086872
Source of the keplerian elements: AFSPC